• En España
  • Lista de países
  • Para 7 días
  • Temperatura del agua
  • Mapa Satelital
  • El tiempo en el mapa
  • Informadores
  • user-avatar
    Iniciar sesión

    Tiempo cada hora Igls

    Hoy, 28 Mayo, Lunes

    Tiempo Temperatura Precipitaciones Viento Presión Humedad
    00:00 +14°C° 0 mm 2 mps 686 mmHg 87%
    01:00 +14°C° 0 mm 2 mps 686 mmHg 88%
    02:00 +14°C° 0 mm 2 mps 686 mmHg 87%
    03:00 +13°C° 0 mm 2 mps 686 mmHg 87%
    04:00 +13°C° 0 mm 2 mps 686 mmHg 87%
    05:00 +15°C° 0 mm 2 mps 686 mmHg 81%
    06:00 +16°C° 0 mm 2 mps 686 mmHg 76%
    07:00 +18°C° 0 mm 2 mps 687 mmHg 71%
    08:00 +20°C° 0 mm 2 mps 687 mmHg 63%
    09:00 +23°C° 0 mm 2 mps 687 mmHg 55%
    10:00 +26°C° 0 mm 2 mps 688 mmHg 47%
    11:00 +26°C° 0,3 mm 2 mps 688 mmHg 46%
    12:00 +26°C° 0,3 mm 2 mps 687 mmHg 45%
    13:00 +27°C° 0,3 mm 2 mps 687 mmHg 45%
    14:00 +26°C° 0,4 mm 2 mps 687 mmHg 49%
    15:00 +25°C° 0,4 mm 2 mps 686 mmHg 53%
    16:00 +24°C° 0,4 mm 2 mps 686 mmHg 57%
    17:00 +23°C° 0,4 mm 2 mps 686 mmHg 63%
    18:00 +21°C° 0,4 mm 2 mps 685 mmHg 70%
    19:00 +21°C° 0,4 mm 1 mps 685 mmHg 77%
    20:00 +19°C° 0,1 mm 2 mps 685 mmHg 81%
    21:00 +17°C° 0,1 mm 2 mps 685 mmHg 85%
    22:00 +16°C° 0,1 mm 2 mps 685 mmHg 89%
    23:00 +15°C° 0 mm 2 mps 685 mmHg 89%

    Mañana, 29 Mayo, Martes

    Tiempo Temperatura Precipitaciones Viento Presión Humedad
    00:00 +15°C° 0 mm 2 mps 685 mmHg 89%
    01:00 +14°C° 0 mm 2 mps 685 mmHg 90%
    02:00 +14°C° 0 mm 2 mps 685 mmHg 89%
    03:00 +14°C° 0 mm 2 mps 685 mmHg 88%
    04:00 +14°C° 0 mm 2 mps 685 mmHg 87%
    05:00 +15°C° 0,1 mm 2 mps 685 mmHg 83%
    06:00 +16°C° 0,1 mm 2 mps 685 mmHg 78%
    07:00 +18°C° 0,1 mm 2 mps 685 mmHg 73%
    08:00 +19°C° 0,1 mm 2 mps 686 mmHg 67%
    09:00 +22°C° 0,1 mm 1 mps 686 mmHg 60%
    10:00 +24°C° 0,1 mm 1 mps 686 mmHg 53%
    11:00 +24°C° 0,3 mm 2 mps 686 mmHg 52%
    12:00 +25°C° 0,3 mm 2 mps 685 mmHg 51%
    13:00 +26°C° 0,3 mm 2 mps 685 mmHg 51%
    14:00 +25°C° 1,4 mm 2 mps 685 mmHg 57%
    15:00 +24°C° 1,4 mm 2 mps 684 mmHg 63%
    16:00 +23°C° 1,4 mm 2 mps 684 mmHg 69%
    17:00 +21°C° 1,9 mm 2 mps 684 mmHg 76%
    18:00 +21°C° 1,9 mm 1 mps 683 mmHg 83%
    19:00 +19°C° 1,9 mm 1 mps 683 mmHg 90%
    20:00 +18°C° 0,9 mm 1 mps 683 mmHg 91%
    21:00 +18°C° 0,9 mm 1 mps 684 mmHg 93%
    22:00 +16°C° 0,9 mm 1 mps 684 mmHg 94%
    23:00 +16°C° 0,2 mm 1 mps 684 mmHg 94%

    Pasado mañana, 30 Mayo, Miércoles

    Tiempo Temperatura Precipitaciones Viento Presión Humedad
    00:00 +15°C° 0,2 mm 1 mps 683 mmHg 94%
    01:00 +15°C° 0,2 mm 2 mps 683 mmHg 94%
    02:00 +14°C° 0 mm 1 mps 683 mmHg 94%
    03:00 +14°C° 0 mm 1 mps 683 mmHg 94%
    04:00 +13°C° 0 mm 1 mps 683 mmHg 94%
    05:00 +15°C° 0 mm 1 mps 683 mmHg 90%
    06:00 +16°C° 0 mm 1 mps 683 mmHg 86%
    07:00 +19°C° 0 mm 1 mps 684 mmHg 82%
    08:00 +20°C° 0,5 mm 1 mps 684 mmHg 74%
    09:00 +22°C° 0,5 mm 1 mps 684 mmHg 67%
    10:00 +24°C° 0,5 mm 1 mps 684 mmHg 59%
    11:00 +24°C° 0,8 mm 1 mps 684 mmHg 57%
    12:00 +25°C° 0,8 mm 2 mps 684 mmHg 56%
    13:00 +25°C° 0,8 mm 2 mps 684 mmHg 54%
    14:00 +25°C° 1,3 mm 2 mps 684 mmHg 57%
    15:00 +25°C° 1,3 mm 1 mps 683 mmHg 59%
    16:00 +24°C° 1,3 mm 1 mps 683 mmHg 62%
    17:00 +23°C° 1,2 mm 1 mps 683 mmHg 69%
    18:00 +22°C° 1,2 mm 1 mps 683 mmHg 76%
    19:00 +21°C° 1,2 mm 1 mps 683 mmHg 83%
    20:00 +20°C° 1 mm 1 mps 683 mmHg 85%
    21:00 +18°C° 1 mm 1 mps 683 mmHg 88%
    22:00 +16°C° 1 mm 1 mps 683 mmHg 90%
    23:00 +15°C° 0,6 mm 1 mps 683 mmHg 90%

    31 Mayo, Jueves

    Tiempo Temperatura Precipitaciones Viento Presión Humedad
    00:00 +15°C° 0,6 mm 1 mps 683 mmHg 91%
    01:00 +14°C° 0,6 mm 2 mps 682 mmHg 91%
    02:00 +14°C° 0,4 mm 1 mps 682 mmHg 90%
    03:00 +14°C° 0,4 mm 1 mps 682 mmHg 90%
    04:00 +13°C° 0,4 mm 1 mps 682 mmHg 90%
    05:00 +15°C° 0,5 mm 1 mps 682 mmHg 85%
    06:00 +18°C° 0,5 mm 1 mps 683 mmHg 80%
    07:00 +19°C° 0,5 mm 1 mps 683 mmHg 74%
    08:00 +21°C° 0,5 mm 1 mps 683 mmHg 69%
    09:00 +22°C° 0,5 mm 1 mps 684 mmHg 65%
    10:00 +24°C° 0,5 mm 1 mps 684 mmHg 60%
    11:00 +25°C° 0,9 mm 1 mps 684 mmHg 58%
    12:00 +25°C° 0,9 mm 1 mps 684 mmHg 56%
    13:00 +25°C° 0,9 mm 1 mps 683 mmHg 55%
    14:00 +25°C° 1,1 mm 1 mps 683 mmHg 58%
    15:00 +25°C° 1,1 mm 1 mps 683 mmHg 61%
    16:00 +24°C° 1,1 mm 1 mps 683 mmHg 65%
    17:00 +23°C° 1,2 mm 1 mps 683 mmHg 71%
    18:00 +22°C° 1,2 mm 1 mps 683 mmHg 78%
    19:00 +21°C° 1,2 mm 1 mps 683 mmHg 85%
    20:00 +19°C° 1,4 mm 1 mps 683 mmHg 87%
    21:00 +16°C° 1,4 mm 0 mps 683 mmHg 90%
    22:00 +15°C° 1,4 mm 0 mps 682 mmHg 92%
    23:00 +14°C° 0,9 mm 0 mps 682 mmHg 92%

    1 Junio, Viernes

    Tiempo Temperatura Precipitaciones Viento Presión Humedad
    00:00 +15°C° 0,9 mm 1 mps 682 mmHg 92%
    01:00 +15°C° 0,9 mm 1 mps 682 mmHg 92%
    02:00 +14°C° 0,8 mm 1 mps 682 mmHg 93%
    03:00 +14°C° 0,8 mm 1 mps 682 mmHg 93%
    04:00 +13°C° 0,8 mm 1 mps 682 mmHg 93%
    05:00 +15°C° 0,5 mm 1 mps 683 mmHg 91%
    06:00 +16°C° 0,5 mm 1 mps 683 mmHg 89%
    07:00 +18°C° 0,5 mm 1 mps 684 mmHg 87%
    08:00 +19°C° 0,8 mm 1 mps 684 mmHg 84%
    09:00 +20°C° 0,8 mm 1 mps 684 mmHg 82%
    10:00 +21°C° 0,8 mm 1 mps 684 mmHg 79%
    11:00 +21°C° 1,3 mm 1 mps 684 mmHg 79%
    12:00 +21°C° 1,3 mm 1 mps 684 mmHg 78%
    13:00 +21°C° 1,3 mm 2 mps 684 mmHg 78%
    14:00 +20°C° 1,2 mm 2 mps 684 mmHg 80%
    15:00 +20°C° 1,2 mm 2 mps 684 mmHg 82%
    16:00 +19°C° 1,2 mm 2 mps 684 mmHg 84%
    17:00 +20°C° 0,9 mm 1 mps 684 mmHg 87%
    18:00 +19°C° 0,9 mm 1 mps 684 mmHg 90%
    19:00 +18°C° 0,9 mm 1 mps 684 mmHg 94%
    20:00 +18°C° 0,6 mm 1 mps 684 mmHg 94%
    21:00 +16°C° 0,6 mm 1 mps 685 mmHg 95%
    22:00 +16°C° 0,6 mm 1 mps 685 mmHg 96%
    23:00 +16°C° 0,5 mm 1 mps 685 mmHg 97%

    2 Junio, Sábado

    Tiempo Temperatura Precipitaciones Viento Presión Humedad
    00:00 +16°C° 0,5 mm 1 mps 685 mmHg 97%
    01:00 +15°C° 0,5 mm 1 mps 685 mmHg 97%
    02:00 +15°C° 0,5 mm 1 mps 685 mmHg 97%
    03:00 +15°C° 0,5 mm 1 mps 685 mmHg 97%
    04:00 +15°C° 0,5 mm 1 mps 685 mmHg 97%
    05:00 +15°C° 0,6 mm 1 mps 685 mmHg 96%
    06:00 +16°C° 0,6 mm 1 mps 686 mmHg 95%
    07:00 +15°C° 0,6 mm 0 mps 686 mmHg 95%
    08:00 +18°C° 0,5 mm 1 mps 686 mmHg 92%
    09:00 +19°C° 0,5 mm 1 mps 686 mmHg 89%
    10:00 +19°C° 0,5 mm 1 mps 686 mmHg 87%
    11:00 +20°C° 0,6 mm 1 mps 686 mmHg 83%
    12:00 +21°C° 0,6 mm 1 mps 686 mmHg 79%
    13:00 +21°C° 0,6 mm 2 mps 687 mmHg 75%
    14:00 +21°C° 0,9 mm 2 mps 686 mmHg 76%
    15:00 +21°C° 0,9 mm 2 mps 686 mmHg 76%
    16:00 +21°C° 0,9 mm 2 mps 686 mmHg 77%
    17:00 +21°C° 0,6 mm 2 mps 686 mmHg 81%
    18:00 +21°C° 0,6 mm 1 mps 686 mmHg 84%
    19:00 +20°C° 0,6 mm 1 mps 686 mmHg 88%
    20:00 +19°C° 0,1 mm 1 mps 687 mmHg 91%
    21:00 +16°C° 0,1 mm 1 mps 687 mmHg 94%
    22:00 +14°C° 0,1 mm 0 mps 687 mmHg 97%
    23:00 +14°C° 0 mm 0 mps 687 mmHg 97%
    Mostrar más